This is the latest recevied weather packets stored in our database for station/object KI4MRC. If no packets are shown the sender has not sent any weather packets the latest 10 day(s).
| Time | Temp. | Humidity | Pressure | Rain* | Wind** | Luminosity | Snow |
|---|---|---|---|---|---|---|---|
| 1777929872 | 25.56° C | 73% | 1013.5 hPa | 0 mm | - | 125 W/m² | - |
| 1777928964 | 25.56° C | 70% | 1013.8 hPa | 0 mm | - | 123 W/m² | - |
| 1777928661 | 26.11° C | 69% | 1013.7 hPa | 0 mm | - | 113 W/m² | - |
| 1777926848 | 26.11° C | 72% | 1013.7 hPa | 0 mm | - | 270 W/m² | - |
| 1777925937 | 25.56° C | 72% | 1014 hPa | 0 mm | - | 204 W/m² | - |
| 1777925028 | 26.11° C | 71% | 1014.1 hPa | 0 mm | - | 184 W/m² | - |
| 1777924725 | 26.67° C | 71% | 1014.1 hPa | 0 mm | - | 354 W/m² | - |
| 1777923509 | 25° C | 74% | 1014.4 hPa | 0 mm | - | 128 W/m² | - |
| 1777923207 | 25° C | 74% | 1014.5 hPa | 0 mm | - | 128 W/m² | - |
| 1777922906 | 25° C | 74% | 1014.5 hPa | 0 mm | - | 131 W/m² | - |
| 1777922603 | 25° C | 74% | 1014.4 hPa | 0 mm | - | 165 W/m² | - |
| 1777922301 | 25° C | 73% | 1014.6 hPa | 0 mm | - | 109 W/m² | - |
| 1777921998 | 25.56° C | 74% | 1014.8 hPa | 0 mm | - | 120 W/m² | - |
| 1777921694 | 25.56° C | 73% | 1014.6 hPa | 0 mm | - | 146 W/m² | - |
| 1777920176 | 25.56° C | 72% | 1014.7 hPa | 0 mm | - | 310 W/m² | - |
| 1777919872 | 26.11° C | 72% | 1014.8 hPa | 0 mm | - | 222 W/m² | - |
| 1777919569 | 26.11° C | 72% | 1014.7 hPa | 0 mm | - | 296 W/m² | - |
| 1777919267 | 26.67° C | 70% | 1014.8 hPa | 0 mm | - | 329 W/m² | - |
| 1777918964 | 27.22° C | 70% | 1014.9 hPa | 0 mm | - | 356 W/m² | - |
| 1777918661 | 26.67° C | 71% | 1014.9 hPa | 0 mm | - | 777 W/m² | - |
| 1777918359 | 26.67° C | 70% | 1014.8 hPa | 0 mm | - | 424 W/m² | - |
| 1777918058 | 26.67° C | 73% | 1014.9 hPa | 0 mm | - | 1206 W/m² | - |
| 1777917756 | 26.67° C | 70% | 1015.3 hPa | 0 mm | - | 319 W/m² | - |
| 1777917453 | 27.22° C | 71% | 1015 hPa | 0 mm | - | 583 W/m² | - |
| 1777916848 | 26.67° C | 75% | 1015.1 hPa | 0 mm | - | 552 W/m² | - |
* Rain latest hour (hover to see other rain measurements)
** Current wind speed in m/s (hover to see current wind gust speed)